Wind_Speed
19 19 19 21 23 24 26 27 28 27 29 29 29 30 31 32 33 35 35 36 37 39 41 41 41 41 41 43 43 43 43 43 43 43 43 43 42 41 41 41 41 41 41 40
19 20 20 21 22 24 26 28 29 29 28 28 29 29 30 31 32 33 35 35 36 38 39 40 40 40 40 40 41 42 42 42 42 42 42 41 41 40 39 39 39 39 39 39
18 20 21 22 22 23 26 28 29 30 28 28 29 29 30 31 32 32 34 35 36 37 38 39 40 40 39 39 39 40 40 41 41 41 41 40 40 40 39 38 38 37 38 38
18 19 21 22 23 24 25 26 29 29 29 29 29 29 30 31 31 32 33 34 35 37 37 38 38 39 39 38 38 38 38 39 39 40 40 40 40 39 38 38 37 37 37 37
19 20 20 21 22 24 25 26 27 27 27 28 28 28 29 30 31 32 32 32 33 35 37 37 38 38 38 38 37 37 37 37 38 38 39 39 39 38 38 37 37 37 37 37
16 18 19 20 21 23 25 26 27 27 27 26 27 27 27 29 30 31 32 33 34 34 36 37 37 38 38 37 37 37 37 37 37 37 38 38 37 37 36 36 36 36 36 36
16 17 18 19 20 21 23 24 26 26 26 26 25 26 26 27 28 29 29 31 32 33 34 35 37 37 38 37 37 37 37 37 37 37 37 37 37 36 35 35 36 36 36 36
17 17 17 19 20 21 22 23 24 24 25 25 25 25 25 25 25 26 27 28 29 30 31 32 34 35 36 36 36 36 36 36 36 36 36 36 36 36 35 35 35 36 36 36
17 18 18 19 20 21 21 22 23 24 24 24 24 24 24 24 25 25 26 27 27 27 28 29 31 32 33 34 34 35 35 35 36 36 36 36 36 36 36 35 35 35 36 36
18 17 18 18 19 20 20 21 21 22 23 23 23 23 23 24 25 25 25 25 26 26 27 28 29 31 32 32 33 34 34 35 35 35 35 35 36 36 36 35 35 36 36 37
18 18 18 18 19 18 19 19 20 21 22 22 23 23 23 23 23 23 23 24 25 26 26 27 28 29 31 32 32 33 33 33 34 35 35 35 35 35 35 35 36 36 36 36
18 18 18 18 19 19 18 18 18 19 20 21 21 22 22 23 23 23 23 23 24 26 26 27 27 28 30 30 31 32 32 32 32 33 33 34 34 34 35 35 35 35 35 35
18 18 18 17 18 18 19 19 19 18 19 20 20 21 22 22 23 24 24 25 25 25 26 26 27 27 29 30 30 30 30 31 31 31 32 32 33 33 33 33 33 33 33 34
17 16 17 17 17 18 19 19 19 19 19 20 20 21 21 22 22 23 24 24 25 25 26 26 27 27 28 29 29 29 30 30 30 30 30 30 30 30 31 31 31 31 31 32
16 16 15 16 17 17 18 19 19 19 19 19 20 20 21 21 22 23 23 24 24 25 26 26 27 27 27 28 28 29 29 29 29 29 29 29 29 29 29 29 29 30 30 30
16 15 14 14 15 16 17 18 18 19 19 19 19 19 20 21 22 22 23 23 24 24 24 25 26 26 27 27 27 27 27 27 27 27 28 28 28 28 28 28 29 29 29 29
15 14 14 14 14 14 15 16 17 17 18 19 19 20 20 20 21 21 21 22 23 23 23 23 24 25 25 26 26 26 27 26 26 27 27 27 27 27 28 28 28 28 28 29
15 14 14 14 14 14 14 15 16 16 17 18 18 19 19 19 20 20 20 21 21 21 22 22 23 24 25 25 26 26 27 27 27 27 27 27 27 28 27 27 27 27 27 27
16 15 15 15 14 14 13 14 15 15 16 18 18 18 18 19 19 19 19 19 20 21 21 21 22 22 24 25 25 25 26 26 26 27 27 27 27 27 26 26 26 26 25 25
16 16 16 15 15 15 14 14 14 15 15 16 17 17 17 18 18 18 18 19 19 19 20 20 21 21 22 23 24 25 25 25 26 26 26 25 25 25 25 25 24 24 24 24
16 16 16 15 15 15 14 14 15 15 15 15 16 16 16 17 17 17 18 18 18 18 18 19 19 20 21 21 22 23 24 24 25 24 24 24 24 23 23 23 23 23 23 22
16 15 15 15 15 15 14 14 14 14 15 15 15 15 15 15 16 16 16 16 16 16 17 17 17 18 19 20 21 22 23 23 23 23 23 23 22 22 22 21 21 21 21 20
16 15 15 15 15 14 14 14 14 14 14 14 14 14 15 15 15 15 15 15 14 14 14 15 16 16 17 18 19 20 21 21 22 22 22 22 21 20 20 19 19 19 18 18
16 16 16 15 15 15 14 14 14 14 14 14 14 14 14 14 14 14 15 14 14 13 13 13 14 15 15 16 17 18 18 19 19 19 19 19 19 19 19 18 18 17 16 16
17 17 17 17 16 15 15 15 15 14 13 13 14 13 13 14 14 14 14 13 13 13 13 13 13 13 14 14 15 16 16 16 17 17 17 17 17 18 18 17 17 16 16 15
18 18 17 17 16 15 14 14 14 14 13 13 13 13 13 13 13 13 13 13 12 12 12 12 12 12 12 13 13 14 14 15 15 15 15 16 16 16 16 16 16 15 15 14
18 18 17 16 15 14 14 13 13 13 13 13 13 12 12 12 12 12 12 12 11 11 11 11 11 11 11 11 12 12 12 12 13 13 13 14 14 14 14 14 14 13 13 13
Wind_Direction
251 252 248 246 243 242 241 240 239 240 242 243 244 243 243 241 240 240 240 240 240 238 236 235 236 237 238 239 240 240 241 243 245 246 248 250 251 254 256 259 261 263 266 269
254 251 249 247 246 245 242 239 239 241 242 242 243 242 242 241 241 241 241 240 240 239 237 235 235 237 238 239 239 240 241 242 244 245 247 249 250 252 255 258 261 263 266 268
261 256 253 250 247 244 241 241 242 245 245 244 244 244 244 243 243 242 242 241 239 237 237 236 235 236 238 239 239 240 241 242 243 245 246 247 249 251 255 258 260 262 265 267
265 260 257 254 251 247 244 243 244 246 247 246 245 244 244 244 244 243 242 241 240 238 236 236 236 236 237 238 239 240 240 241 243 245 246 247 249 251 254 256 259 262 264 267
268 264 261 257 255 250 246 244 245 247 246 245 245 244 242 243 244 244 242 240 239 238 237 236 235 236 237 238 239 240 240 241 243 245 247 248 249 251 254 256 259 262 264 267
275 269 265 260 258 254 250 248 246 248 247 245 244 244 241 243 243 243 242 242 240 240 239 237 236 236 237 238 239 240 241 242 243 245 247 248 249 251 253 256 259 261 265 268
277 274 270 266 263 258 254 252 250 251 250 248 247 246 243 242 242 243 243 242 240 240 239 238 237 236 237 239 240 240 241 243 244 246 247 247 248 250 253 256 259 262 265 269
281 278 274 270 265 262 258 254 252 250 249 249 248 246 244 243 242 242 242 241 240 238 236 237 237 237 237 239 240 240 242 243 244 245 245 246 248 250 253 257 260 262 266 271
283 279 275 272 268 264 261 257 254 251 250 249 247 245 243 243 242 241 240 240 238 236 235 235 236 236 236 238 240 241 242 244 244 244 244 246 247 250 253 256 260 264 268 272
284 279 274 270 268 264 260 257 254 253 251 249 247 245 244 243 241 239 238 237 235 233 234 235 236 236 236 238 239 242 243 243 244 244 245 247 248 251 254 256 260 265 269 272
283 278 273 268 266 265 263 258 253 251 251 250 248 245 243 242 239 237 235 234 233 233 234 235 236 237 238 239 239 241 243 244 245 245 246 248 250 252 254 256 260 265 268 272
284 279 275 269 265 264 263 259 254 252 250 248 246 244 244 243 240 238 236 235 234 235 236 236 237 238 239 239 240 241 242 243 245 246 247 248 250 252 254 258 262 266 271 274
288 280 277 272 267 263 259 257 255 254 251 247 246 245 244 243 242 240 238 238 239 239 238 239 239 239 240 240 241 241 242 242 245 246 248 249 251 252 255 260 264 268 271 274
293 285 279 275 270 265 260 256 254 254 252 249 246 246 246 245 243 242 241 240 240 241 241 240 240 240 240 240 241 242 242 243 245 246 248 250 251 254 258 261 265 269 272 275
296 290 283 278 274 267 261 255 252 252 252 250 247 246 246 247 246 244 244 243 241 242 241 241 241 241 240 240 242 243 243 244 245 247 249 252 254 257 260 263 266 269 272 275
298 294 288 284 279 271 262 256 252 251 250 249 247 245 246 246 246 245 244 243 243 243 242 242 242 242 241 241 242 243 243 245 247 249 251 253 256 259 260 263 266 269 271 274
298 296 292 288 284 275 265 257 252 249 250 249 247 247 248 247 246 245 245 244 244 243 242 242 242 241 242 242 243 244 245 247 249 251 254 257 258 260 262 264 267 270 272 275
297 296 293 290 285 276 268 260 255 252 252 251 249 249 249 249 247 246 245 244 245 245 246 245 244 243 243 243 244 245 247 249 251 254 256 259 260 261 262 264 267 270 273 275
294 291 290 287 284 277 270 265 261 258 255 251 250 251 250 249 249 248 248 247 246 245 246 246 246 245 245 245 245 246 247 248 251 254 258 260 261 261 262 264 267 270 273 276
294 291 288 285 281 277 270 265 262 260 257 253 251 249 248 248 248 249 250 250 250 249 249 248 246 246 247 247 246 247 248 249 252 255 258 258 258 260 262 264 266 270 273 277
295 291 289 285 280 276 271 266 263 260 258 256 253 250 249 248 247 247 247 249 250 249 249 250 249 249 247 246 246 247 248 249 251 253 255 256 257 259 261 263 266 270 273 276
294 292 289 285 280 275 270 266 264 261 259 258 255 251 249 247 245 244 244 247 248 249 248 249 251 251 249 247 249 249 248 248 250 251 254 254 256 258 261 263 266 269 272 275
292 292 290 285 278 273 269 266 263 260 258 257 254 250 246 244 244 243 244 245 247 248 248 248 250 252 252 250 250 249 249 249 251 253 252 252 254 257 259 261 265 269 271 274
291 292 290 286 278 272 268 265 263 260 258 256 253 249 245 242 241 241 242 244 247 249 250 251 253 254 253 252 251 249 250 251 252 252 251 250 252 255 258 261 264 268 270 273
291 291 289 283 278 272 266 264 262 259 256 253 250 246 243 240 239 239 240 241 244 248 251 252 254 254 253 252 251 250 250 251 252 252 251 251 252 255 258 260 261 264 268 269
291 290 287 281 275 270 266 263 259 256 253 250 246 243 240 238 236 237 239 242 245 247 249 250 249 250 251 252 252 250 249 250 250 251 252 253 253 256 258 259 261 262 264 265
294 289 284 279 273 269 265 260 254 251 248 244 242 240 237 235 235 236 237 238 240 243 246 248 247 248 248 247 247 247 248 250 250 251 255 256 255 257 259 259 260 260 261 262
Height
5539 5541 5542 5544 5547 5549 5551 5553 5556 5558 5560 5563 5565 5568 5570 5574 5577 5581 5584 5588 5592 5596 5601 5606 5611 5616 5621 5626 5630 5635 5639 5643 5648 5652 5655 5658 5661 5664 5666 5668 5669 5670 5671 5671
5536 5536 5538 5539 5541 5543 5545 5547 5550 5552 5554 5556 5558 5560 5563 5566 5569 5572 5576 5579 5583 5587 5592 5597 5602 5607 5612 5617 5621 5625 5630 5634 5638 5642 5645 5648 5651 5654 5656 5658 5659 5660 5661 5662
5531 5532 5533 5535 5537 5538 5540 5542 5544 5545 5548 5549 5551 5554 5556 5558 5561 5564 5567 5571 5574 5579 5583 5588 5593 5598 5603 5608 5612 5616 5620 5624 5628 5632 5635 5639 5641 5644 5646 5648 5649 5651 5652 5652
5526 5527 5528 5532 5531 5532 5534 5536 5537 5539 5541 5543 5545 5547 5549 5551 5553 5557 5559 5563 5566 5570 5575 5579 5584 5589 5594 5599 5603 5607 5611 5615 5619 5622 5626 5629 5632 5635 5637 5638 5640 5641 5642 5642
5521 5521 5522 5525 5525 5526 5528 5530 5531 5532 5534 5536 5538 5540 5542 5544 5547 5549 5552 5555 5558 5562 5566 5571 5575 5580 5585 5590 5594 5598 5602 5606 5610 5613 5616 5619 5622 5625 5627 5629 5630 5631 5632 5633
5516 5516 5517 5520 5519 5520 5522 5524 5525 5526 5528 5529 5531 5534 5537 5538 5540 5542 5545 5548 5551 5554 5558 5563 5567 5572 5577 5581 5585 5589 5593 5597 5600 5603 5607 5610 5613 5615 5617 5619 5621 5622 5623 5623
5512 5512 5512 5514 5514 5515 5518 5519 5519 5520 5521 5523 5525 5527 5529 5531 5533 5535 5538 5540 5543 5547 5550 5554 5559 5563 5568 5572 5576 5581 5584 5588 5591 5594 5597 5600 5603 5606 5608 5610 5612 5613 5614 5614
5509 5508 5511 5508 5508 5510 5511 5511 5512 5513 5515 5517 5519 5520 5522 5524 5526 5529 5531 5534 5536 5539 5543 5546 5551 5555 5560 5564 5568 5572 5575 5579 5582 5585 5588 5591 5594 5597 5599 5601 5603 5604 5605 5605
5505 5506 5504 5503 5503 5504 5504 5505 5506 5508 5509 5511 5513 5515 5516 5518 5520 5523 5525 5528 5530 5533 5536 5539 5543 5547 5551 5555 5559 5563 5566 5570 5573 5576 5579 5582 5585 5588 5590 5592 5594 5595 5596 5596
5500 5500 5499 5498 5498 5498 5499 5499 5500 5502 5503 5505 5507 5509 5511 5512 5515 5517 5519 5522 5524 5527 5530 5533 5536 5540 5544 5547 5551 5555 5558 5561 5564 5567 5570 5573 5576 5578 5581 5583 5584 5586 5586 5587
5495 5495 5494 5494 5493 5493 5494 5494 5495 5496 5497 5499 5501 5503 5505 5507 5509 5511 5514 5516 5519 5522 5524 5527 5530 5533 5537 5540 5544 5547 5550 5553 5556 5558 5561 5564 5567 5569 5572 5573 5575 5576 5577 5577
5491 5490 5489 5489 5489 5489 5489 5489 5490 5491 5492 5494 5495 5497 5499 5501 5504 5506 5508 5511 5513 5516 5519 5521 5524 5527 5530 5533 5536 5539 5542 5545 5548 5550 5553 5555 5558 5560 5562 5564 5565 5566 5567 5567
5486 5485 5484 5484 5484 5483 5484 5484 5485 5486 5487 5489 5490 5492 5494 5496 5498 5501 5503 5505 5508 5510 5513 5515 5518 5520 5523 5526 5529 5532 5534 5537 5540 5542 5545 5547 5550 5552 5554 5555 5556 5557 5557 5557
5481 5480 5479 5479 5479 5478 5479 5479 5480 5481 5482 5483 5485 5487 5489 5491 5493 5495 5497 5499 5502 5504 5506 5509 5511 5514 5516 5519 5522 5524 5527 5530 5532 5535 5537 5539 5541 5543 5545 5547 5548 5548 5548 5547
5477 5475 5475 5474 5474 5473 5473 5474 5475 5476 5477 5478 5480 5482 5483 5485 5487 5489 5491 5493 5496 5498 5500 5502 5505 5507 5509 5512 5514 5517 5520 5522 5525 5527 5530 5532 5533 5535 5537 5538 5539 5539 5539 5538
5473 5471 5470 5470 5469 5468 5468 5469 5470 5471 5472 5473 5475 5476 5478 5479 5481 5483 5485 5487 5489 5491 5493 5496 5498 5500 5502 5505 5507 5510 5512 5515 5517 5520 5522 5524 5525 5527 5528 5529 5530 5530 5530 5530
5469 5468 5466 5466 5465 5464 5464 5464 5465 5466 5467 5468 5470 5471 5472 5474 5476 5477 5479 5481 5483 5485 5487 5489 5491 5493 5495 5497 5500 5503 5505 5508 5510 5512 5514 5516 5517 5519 5520 5521 5521 5522 5521 5521
5465 5464 5462 5462 5461 5460 5460 5460 5460 5461 5462 5463 5464 5466 5467 5468 5470 5472 5473 5475 5476 5478 5480 5482 5484 5486 5488 5490 5493 5495 5498 5500 5502 5504 5506 5508 5509 5510 5511 5512 5512 5513 5513 5512
5461 5459 5458 5457 5456 5456 5456 5456 5456 5456 5457 5458 5459 5461 5462 5463 5464 5466 5467 5469 5470 5472 5474 5475 5477 5478 5481 5483 5485 5488 5490 5492 5494 5496 5498 5499 5501 5502 5503 5503 5504 5504 5504 5504
5456 5455 5453 5453 5452 5452 5451 5451 5452 5452 5452 5453 5454 5455 5457 5458 5459 5461 5462 5463 5465 5466 5467 5469 5470 5472 5474 5476 5478 5480 5482 5484 5486 5488 5490 5491 5492 5494 5495 5495 5496 5496 5496 5496
5451 5450 5449 5448 5447 5447 5447 5447 5447 5447 5448 5448 5449 5450 5451 5453 5454 5456 5457 5458 5459 5460 5462 5463 5464 5465 5467 5469 5471 5473 5475 5477 5479 5481 5482 5484 5485 5486 5487 5487 5488 5489 5489 5488
5446 5445 5444 5443 5442 5442 5442 5442 5442 5442 5443 5444 5444 5445 5447 5448 5449 5451 5452 5454 5455 5455 5456 5457 5458 5459 5461 5462 5464 5466 5467 5469 5471 5473 5475 5476 5478 5479 5479 5480 5481 5481 5481 5481
5441 5440 5439 5438 5438 5437 5437 5437 5437 5438 5438 5439 5440 5441 5442 5443 5445 5446 5448 5449 5450 5451 5451 5452 5453 5454 5455 5456 5458 5459 5461 5463 5464 5466 5468 5469 5471 5472 5472 5473 5474 5474 5474 5474
5436 5435 5434 5433 5433 5432 5432 5432 5433 5433 5434 5434 5435 5436 5437 5439 5440 5441 5443 5444 5445 5446 5447 5448 5449 5449 5450 5451 5452 5454 5455 5457 5459 5460 5462 5463 5464 5465 5466 5467 5467 5468 5468 5468
5431 5430 5429 5428 5428 5427 5427 5427 5428 5428 5429 5430 5431 5432 5433 5435 5436 5437 5439 5440 5441 5442 5443 5444 5444 5445 5446 5447 5448 5450 5451 5452 5454 5455 5456 5458 5459 5460 5460 5461 5462 5462 5463 5463
5425 5424 5423 5423 5422 5422 5422 5422 5423 5424 5425 5426 5427 5428 5429 5431 5432 5434 5435 5436 5437 5438 5439 5440 5441 5442 5442 5444 5445 5446 5447 5448 5449 5451 5452 5453 5454 5454 5455 5456 5456 5457 5457 5458
5420 5419 5418 5417 5417 5417 5417 5418 5418 5419 5420 5422 5423 5424 5426 5427 5429 5430 5431 5433 5434 5435 5436 5437 5437 5438 5439 5440 5441 5443 5444 5445 5445 5446 5447 5448 5449 5450 5450 5451 5451 5452 5452 5453